Home > Weather > Sevilla > Past weeks

Flag for Spain Weather for the Past 2 Weeks in Sevilla, Spain

Now
59 °F

Passing clouds.


Feels Like: 58 °F
Forecast: 47 / 62 °F
Wind: 8 mph from Northwest

Location: Sevilla / San Pablo

Current Time: Feb 7, 2016 at 12:03:11 PM

Latest Report: Feb 7, 2016 at 11:30 AM


Visibility: N/A

Pressure: 30.30 "Hg

Humidity: 63%

Dew point: 46 °F

Location of SevillaLocation

Historic Weather in Sevilla — Graph

°F

Sevilla Temperature Yesterday

Maximum temperature yesterday: 66 °F (at 2:30 PM)
Minimum temperature yesterday: 46 °F (at 4:30 AM)
Average temperature yesterday: 57 °F

High & Low Weather Summary for the Past Weeks

 TemperatureHumidityPressure
High72 °F (Jan 23, 4:30 PM)100% (Jan 24, 1:00 AM)30.60 "Hg (Jan 24, 1:00 AM)
Low43 °F (Jan 27, 7:30 AM)46% (Feb 4, 3:30 PM)30.12 "Hg (Feb 6, 3:30 PM)
Average55 °F79%30.39 "Hg
* Reported Jan 23 11:00 AM — Feb 7 11:00 AM, Sevilla, Weather by CustomWeather, © 2016

Note: Actual official high and low records may vary slightly from our data, if they occured in-between our weather recording intervals... More about our weather records

Advertising

Sevilla Weather History for the Previous 24 Hours

 ConditionsComfort  
Time TempWeatherWind HumidityBarometerVisibility
11:00 AM
Sun, Feb 7
59 °FPassing clouds.7 mph68%30.30 "HgN/A
10:30 AM57 °FSunny.6 mph77%30.30 "Hg10 mi
10:00 AM55 °FSunny.5 mph82%30.27 "Hg10 mi
9:30 AM54 °FSunny.3 mph88%30.24 "Hg10 mi
9:00 AM54 °FSunny.6 mph82%30.24 "Hg10 mi
8:30 AM54 °FPassing clouds.10 mph82%30.21 "HgN/A
8:00 AM55 °FPassing clouds.12 mph82%30.21 "HgN/A
7:30 AM55 °FPassing clouds.15 mph88%30.18 "HgN/A
7:00 AM57 °FPassing clouds.14 mph88%30.18 "HgN/A
6:30 AM57 °FPassing clouds.16 mph94%30.15 "HgN/A
6:00 AM57 °FPassing clouds.15 mph94%30.12 "HgN/A
5:30 AM57 °FPassing clouds.10 mph94%30.12 "HgN/A
5:00 AM57 °FPartly cloudy.13 mph94%30.12 "HgN/A
4:30 AM59 °FPartly cloudy.15 mph88%30.12 "Hg4 mi
4:00 AM59 °FPartly cloudy.16 mph88%30.12 "Hg6 mi
3:30 AM59 °FPassing clouds.17 mph88%30.12 "HgN/A
1:00 AM59 °FPassing clouds.13 mph82%30.15 "HgN/A
12:30 AM59 °FPassing clouds.9 mph88%30.15 "HgN/A
12:00 AM59 °FPassing clouds.8 mph88%30.18 "HgN/A
11:30 PM
Sat, Feb 6
59 °FPassing clouds.8 mph88%30.18 "HgN/A
11:00 PM59 °FPassing clouds.9 mph88%30.18 "HgN/A
10:00 PM59 °FPassing clouds.13 mph94%30.15 "HgN/A
9:30 PM59 °FPassing clouds.12 mph94%30.15 "HgN/A
9:00 PM59 °FPassing clouds.10 mph94%30.15 "HgN/A
8:30 PM59 °FPassing clouds.12 mph94%30.15 "HgN/A
8:00 PM59 °FPassing clouds.10 mph88%30.12 "HgN/A
7:30 PM61 °FPassing clouds.12 mph83%30.12 "HgN/A
7:00 PM61 °FPassing clouds.14 mph77%30.12 "HgN/A
6:30 PM61 °FPassing clouds.14 mph72%30.12 "HgN/A
6:00 PM63 °FPassing clouds.15 mph68%30.12 "HgN/A
5:30 PM63 °FPassing clouds.16 mph73%30.12 "HgN/A
5:00 PM63 °FScattered clouds.15 mph77%30.15 "HgN/A
4:30 PM63 °FBroken clouds.14 mph77%30.15 "HgN/A
4:00 PM63 °FBroken clouds.18 mph77%30.15 "HgN/A
3:30 PM64 °FPartly sunny.21 mph73%30.12 "HgN/A
3:00 PM64 °FPartly sunny.21 mph73%30.15 "HgN/A
2:30 PM66 °FPartly sunny.22 mph68%30.15 "HgN/A
2:00 PM64 °FScattered clouds.20 mph73%30.18 "HgN/A
1:30 PM64 °FPartly sunny.16 mph73%30.18 "HgN/A
1:00 PM59 °FPartly sunny.1 mph77%30.21 "HgN/A
12:30 PM59 °FPartly sunny.No wind72%30.21 "HgN/A
12:00 PM59 °FPartly sunny.1 mph72%30.24 "HgN/A
Weather by CustomWeather, © 2016

See weather overviewHow to use our weather pages